Regional Weather Roundup
Issued by NWS

Home | Current Version | Previous Version | Graphics & Text | Print | Product List | Glossary On
Versions: 1 2 3 4 5 6 7 8 9 10 11 12 13 14 15 16 17 18 19 20 21 22 23 24 25 26 27 28 29 30 31 32 33 34 35 36 37 38 39 40 41 42 43 44 45 46 47 48 49 50
000
ASUS43 KIND 261959
RWRIN

WEATHER ROUNDUP FOR INDIANA
NATIONAL WEATHER SERVICE INDIANAPOLIS IN
400 PM EDT TUE JUL 26 2016

NOTE: "FAIR" INDICATES FEW OR NO CLOUDS BELOW 12,000 FEET WITH NO
SIGNIFICANT WEATHER AND/OR OBSTRUCTIONS TO VISIBILITY.

* - STATION DOES NOT REPORT WEATHER SUCH AS PRECIPITATION OR FOG.

+ - STATION NOT QUALITY CONTROLLED BY THE NATIONAL WEATHER SERVICE.
    USE DATA WITH CAUTION...ESPECIALLY DEWPOINT AND RELATIVE
    HUMIDITY OBSERVATIONS.

INZ001>003-010>013-019-020-262100-
NORTHWEST INDIANA

CITY           SKY/WX    TMP DP  RH WIND       PRES   REMARKS
GARY /AIRPORT/ MOSUNNY   84  70  61 N7        30.03F
KNOX *+        SUNNY     82  52  34 E3        30.03F
MONTICELLO +   MOSUNNY   83  62  48 CALM      30.02F
RENSSELAER +   MOSUNNY   82  66  57 CALM      30.04S

$$

LMZ046-743>745-262100-
SOUTHERN LAKE MICHIGAN

STATION/POSITION TIME  TEMP    WIND        PRES    WAVE
                       AIR SEA DIR/SP/G            HT
                 (UTC) (F)     (DEG/KT/KT) (MB)    (FT)
BURNS HARBOR     1900   77      40/  8/  8 1017.6F
MICHIGAN CITY    1900   77     350/  8/  9   N/A
5NW MICH CITY    1900   77 77   10/  6/  8   N/A     0

$$

INZ004-005-014>016-021>024-262100-
NORTH CENTRAL INDIANA

CITY           SKY/WX    TMP DP  RH WIND       PRES   REMARKS
GOSHEN         MOSUNNY   84  59  42 N8        30.03F
SOUTH BEND     MOSUNNY   86  60  41 CALM      30.03F

$$

INZ006>009-017-018-025>027-262100-
NORTHEAST INDIANA

CITY           SKY/WX    TMP DP  RH WIND       PRES   REMARKS
ANGOLA *+        N/A     88  82  84 W5        30.03F HX 108
FORT WAYNE     PTSUNNY   86  62  44 VRB6      30.02F

$$

INZ028-029-035-036-043>045-051>053-262100-
WEST CENTRAL INDIANA

CITY           SKY/WX    TMP DP  RH WIND       PRES   REMARKS
CRAWFORDSVL +  CLOUDY    79  64  60 E5        30.03F
LAFAYETTE      SUNNY     82  64  54 SE7       30.01F
TERRE HAUTE    CLOUDY    81  70  69 E5        30.01F

$$

INZ030>032-037>040-046>048-054>057-064-065-262100-
CENTRAL INDIANA

CITY           SKY/WX    TMP DP  RH WIND       PRES   REMARKS
ANDERSON       MOSUNNY   77  63  61 CALM      30.04F
INDIANAPOLIS   CLOUDY    79  68  69 E5        30.03F
-EAGLE CREEK   CLOUDY    80  67  64 E5        30.02F
KOKOMO *+      MOSUNNY   84  64  51 N5        30.02F
SHELBYVILLE    CLOUDY    79  68  69 E5        30.01F

$$

INZ033-034-041-042-049-050-058-059-262100-
EAST CENTRAL INDIANA

CITY           SKY/WX    TMP DP  RH WIND       PRES   REMARKS
MUNCIE         CLOUDY    82  67  60 CALM      30.03F

$$

INZ060-061-067>069-081>083-085>088-262100-
SOUTHWEST INDIANA

CITY           SKY/WX    TMP DP  RH WIND       PRES   REMARKS
EVANSVILLE     PTSUNNY   87  73  62 SE3       29.98F
HUNTINGBURG *+ MOSUNNY   90  75  62 CALM      29.98F HX 100

$$

INZ062-063-066-070>080-084-089>092-262100-
SOUTH CENTRAL AND SOUTHEAST INDIANA

CITY           SKY/WX    TMP DP  RH WIND       PRES   REMARKS
BLOOMINGTON    PTSUNNY   82  72  71 VRB5      30.01F
MADISON *+     CLOUDY    79  73  83 NE6       30.02F

$$





USA.gov is the U.S. government's official web portal to all federal, state and local government web resources and services.